Location: ??????
(41.3164°N, 22.6615°E)
Time: 09:01:13
(UTC+00:00)

FO-29 - Visible Passes

Search period start: 27 June 2022 00:00
Search period end: 07 July 2022 00:00
Orbit: 801 x 1320 km, 98.5° (Epoch: 26 June)

Date Brightness Start Highest point End Pass type
(mag) Time Alt. Az. Time Alt. Az. Time Alt. Az.
27 Jun 12.6 18:58:56 10° WSW 19:02:01 13° W 19:05:13 10° WNW visible
29 Jun 12.6 18:53:15 10° WSW 18:56:56 14° W 19:00:45 10° NW visible
01 Jul 12.5 18:47:42 10° WSW 18:51:52 16° W 18:56:12 10° NW visible
03 Jul 12.5 18:42:13 10° WSW 18:46:49 17° W 18:51:34 10° NW visible
05 Jul 12.5 18:36:49 10° SW 18:41:47 18° W 18:46:53 10° NW visible
